Preview of NWS' New Version of Forecast
This preview is not operational and should not be used for support decisions.

Regional Weather Roundup (RWR)

Issued by National Weather Service (NWS)

                            
000
ASUS45 KBOU 190910
RWRCO 

WEATHER ROUNDUP FOR COLORADO
NATIONAL WEATHER SERVICE DENVER/BOULDER CO
300 AM MDT SUN MAY 19 2019

NOTE: "FAIR" INDICATES FEW OR NO CLOUDS BELOW 12000 FEET WITH NO
SIGNIFICANT WEATHER AND/OR OBSTRUCTIONS TO VISIBILITY.

COZ001>005-013-030-031-191000-
...NORTHWEST COLORADO...
  
CITY           SKY/WX    TMP DP  RH WIND       PRES   REMARKS
CRAIG          FAIR      36  32  85 CALM      29.92F                  
HAYDEN         FAIR      39  31  72 E7        29.94F                  
MEEKER         MOCLDY    32  28  85 NE6       29.93F WCI  26          
RANGELY        CLOUDY    40  32  71 CALM      29.89S                  
RABBIT EARS PA NOT AVBL                                               
STEAMBOAT SPGS FAIR      37  33  84 CALM      29.94F                  
WALDEN         CLOUDY    37  25  60 SW15      29.96F                  
$$

COZ006>008-011-191000-
...WEST CENTRAL VALLEYS...
  
CITY           SKY/WX    TMP DP  RH WIND       PRES   REMARKS
GRAND JUNCTION MOCLDY    46  35  65 E17       29.89F                  
MONTROSE       FAIR      34  31  88 SE7       29.97F WCI  28          
EAGLE          FAIR      30  28  92 SE3       30.00F                  
RIFLE          MOCLDY    34  31  88 S3        29.95F                  
DELTA          FAIR      42  36  78 NE10      29.95F                  
NUCLA          FAIR      43  32  65 E8        29.94F                  
$$

COZ017>023-064>068-191000-
...SOUTHWEST COLORADO...
  
CITY           SKY/WX    TMP DP  RH WIND       PRES   REMARKS
DURANGO        FAIR      35  30  82 N3        29.98S                  
CORTEZ         FAIR      37  29  72 CALM      29.92F                  
PAGOSA SPRINGS FAIR      33  27  79 CALM      30.02S                  
TELLURIDE      FAIR      32  27  80 SE7       30.04F WCI  26          
WOLF CREEK PAS FAIR      23  18  80 S9        30.14F WCI  13          
$$

COZ009-010-012-014-032>034-037-058>063-191000-
...CENTRAL COLORADO...
  
CITY           SKY/WX    TMP DP  RH WIND       PRES   REMARKS
ASPEN          FAIR      33  21  61 VRB7      29.99F WCI  27          
BUENA VISTA    FAIR      30  21  68 CALM      30.00S                  
COPPER MTN     FAIR      25  16  68 SW14      30.06F WCI  13          
BERTHOUD PASS  MOCLDY    18   9  68 NW22G30   30.03S WCI   0          
COTTONWOOD PAS FAIR      32  21  64 NW6G16    30.01F WCI  26          
GUNNISON       FAIR      30  28  92 CALM      30.05S                  
GRANBY         CLOUDY    34  28  81 CALM      30.00S                  
KREMMLING      FAIR      36  28  75 W6        29.98F                  
LEADVILLE      FAIR      22  18  85 NW6       30.02F WCI  14          
MONARCH PASS   MOCLDY    21  19  93 W28       30.15S WCI   3          
SALIDA         FAIR      37  23  58 NE3       30.05F                  
SUNLIGHT       FAIR      25  21  86 SW10G18   30.07F WCI  15          
WILKERSON PASS FAIR      25  14  63 W6        30.05S WCI  18          
$$

COZ069>075-191000-
...SAN LUIS VALLEY/SANGRE DE CRISTO MOUNTAINS...
  
CITY           SKY/WX    TMP DP  RH WIND       PRES   REMARKS
ALAMOSA        FAIR      30  24  78 NW5       30.00F WCI  25          
DEL NORTE      FAIR      28  20  72 NW5       30.02F WCI  22          
LA VETA PASS   NOT AVBL                                               
SAGUACHE       FAIR      30  27  86 CALM      30.02F                  
$$

COZ035-036-038>040-191000-
...NORTHERN COLORADO FRONT RANGE...
  
CITY           SKY/WX    TMP DP  RH WIND       PRES   REMARKS
DENVER INTL AP CLOUDY    38  35  89 E10       29.97R                  
AURORA         CLOUDY    37  37  99 E12       29.97R                  
FRONT RANGE AP CLOUDY    39  36  87 E8        29.98R                  
ERIE MUNI ARPT CLOUDY    41  35  80 E5        30.03R                  
BOULDER MUN AP CLOUDY    41  36  81 E5        29.97R                  
CENTENNIAL     CLOUDY    40  37  89 E10       29.95S                  
BROOMFIELD     CLOUDY    39  36  87 NE6       29.98R                  
FORT COLLINS   CLOUDY    40  33  76 SE9       29.97R                  
LONGMONT       CLOUDY    43  36  75 E9        30.00R                  
$$

COZ041-046-047-076>085-087-088-191000-
...PIKES PEAK/PALMER DIVIDE AND SOUTHERN FOOTHILLS...
  
CITY           SKY/WX    TMP DP  RH WIND       PRES   REMARKS
COLO. SPRINGS  FAIR      34  29  82 NW6       29.95S WCI  29          
A. F. ACADEMY  FAIR      29  28  94 N7        29.93S WCI  22          
SCHRIEVER AFB  NOT AVBL                                               
CHEYENNE MTN   NOT AVBL                                               
ELLICOTT         N/A    N/A N/A N/A E13       29.93F                  
FALCON         FAIR      33  32  93 NW6       29.96F WCI  28          
FORT CARSON    FAIR      38  30  73 NW5       29.92S                  
LIMON          FAIR      34  33  96 N10       29.95S WCI  26          
MONUMENT HILL  FAIR      30  30 100 E3        29.98S                  
CANON CITY     FAIR      37  28  70 SE6       29.93R                  
WALSENBURG     NOT AVBL                                               
TRINIDAD       FAIR      32  27  81 NW8       29.94S WCI  25          
$$

COZ042>045-048>051-090-091-191000-
...NORTHEAST COLORADO...
  
CITY           SKY/WX    TMP DP  RH WIND       PRES   REMARKS
GREELEY ARPT   CLOUDY    40  31  70 NE14      29.99R                  
AKRON          NOT AVBL                                               
BURLINGTON     FAIR      38  31  76 NW14      29.93S                  
WRAY           FAIR      37  32  81 W10       29.94S                  
YUMA           FAIR      36  30  80 NW13      29.95R                  
STERLING       CLOUDY    39  32  75 N13       29.95S                  
HOLYOKE        FAIR      41  32  70 NW21G31   29.92F                  
FORT MORGAN      N/A     38  29  70 N7        29.98R                  
$$

COZ086-089-092>099-191000-
...SOUTHEAST COLORADO...
  
CITY           SKY/WX    TMP DP  RH WIND       PRES   REMARKS
PUEBLO         FAIR      38  29  70 CALM      29.93R                  
LA JUNTA       FAIR      42  34  73 CALM      29.94R                  
LAMAR          FAIR      36  32  85 CALM      29.92R                  
SPRINGFIELD      N/A     35  34  96 N7        29.93F WCI  29          
$$